Tracking 34142 objects as of 18-May-2026
HD Live streaming from Space Station
objects crossing your sky now

STARLINK-37493

Track STARLINK-37493 now!
10-day predictions
STARLINK-37493 is classified as:


NORAD ID: 68910
Int'l Code: 2026-097R
Perigee: 379.6 km
Apogee: 382.0 km
Inclination: 97.3 °
Period: 92.0 minutes
Semi major axis: 6751 km
RCS: Unknown
Launch date: April 30, 2026
Source: United States (US)
Launch site: AIR FORCE WESTERN TEST RANGE (AFWTR)
Your satellite tracking list
Your tracking list is empty




NASA's NSSDC Master Catalog

Two Line Element Set (TLE):
1 68910U 26097R   26137.83335647 -.02606624  00000-0 -30879-1 0  9992
2 68910  97.2843 333.5031 0001792  73.5898  11.9181 15.64847792  4026
Source of the keplerian elements: AFSPC